This demonstration page uses our WeatherBlox Daily Observations layout. Learn more.

Left ArrowRight Arrow

41.86663, -103.66717

Hourly Observations for January 18, 2017

Temp ( °F °C ) Dew Point ( °F °C ) Humidity (%) Winds ( mph kmh ) Pressure ( in mb ) Visibility ( mi km ) Precip ( " mm )
12:53 am 00:53 Clear 24 -4.4 15 -9.4 68 68 NNW 3 6 30.01 1016 10 16 0.00 0.00
1:53 am 01:53 Clear 24 -4.4 15 -9.4 68 68 N 8 13 30.01 1016 10 16 0.00 0.00
2:53 am 02:53 Clear 21 -6.1 14 -10 74 74 W 6 9 30.01 1016 10 16 0.00 0.00
3:53 am 03:53 Clear 19 -7.2 13 -10.6 77 77 NW 7 11 30.01 1016 10 16 0.00 0.00
4:53 am 04:53 Clear 26 -3.3 15 -9.4 63 63 NW 8 13 29.98 1015 10 16 0.00 0.00
5:53 am 05:53 Clear 25 -3.9 14 -10 63 63 NW 12 19 29.97 1015 10 16 0.00 0.00
6:53 am 06:53 Clear 22 -5.6 13 -10.6 68 68 Calm 29.98 1015 10 16 0.00 0.00
7:53 am 07:53 Sunny 22 -5.6 15 -9.4 75 75 NW 5 7 29.98 1015 10 16 0.00 0.00
8:53 am 08:53 Sunny 31 -0.6 17 -8.3 56 56 NW 5 7 29.96 1014 10 16 0.00 0.00
9:53 am 09:53 Sunny 37 2.8 19 -7.2 48 48 NW 9 15 29.93 1014 10 16 0.00 0.00
10:53 am 10:53 Sunny 42 5.6 20 -6.7 41 41 NW 7 11 29.88 1012 10 16 0.00 0.00
11:53 am 11:53 Sunny 46 7.8 21 -6.1 37 37 NW 5 7 29.84 1011 10 16 0.00 0.00
12:53 pm 12:53 Sunny 50 10 23 -5 35 35 undefined N/A 29.81 1009 N/A 0.00 0.00
1:53 pm 13:53 Sunny 50 10 25 -3.9 38 38 ESE 7 11 29.79 1009 10 16 0.00 0.00
2:53 pm 14:53 Sunny 47 8.3 29 -1.7 50 50 ENE 5 7 29.79 1009 10 16 0.00 0.00
3:53 pm 15:53 Sunny 48 8.9 28 -2.2 46 46 E 3 6 29.78 1008 10 16 0.00 0.00
4:53 pm 16:53 Clear 44 6.7 26 -3.3 49 49 SSE 5 7 29.75 1008 10 16 0.00 0.00
5:53 pm 17:53 Clear 38 3.3 26 -3.3 62 62 Calm 29.78 1008 10 16 0.00 0.00
6:53 pm 18:53 Clear 39 3.9 23 -5 53 53 Calm 29.77 1008 10 16 0.00 0.00
7:53 pm 19:53 Clear 32 0 23 -5 69 69 Calm 29.77 1008 10 16 0.00 0.00
8:53 pm 20:53 Clear 31 -0.6 23 -5 72 72 Calm 29.73 1007 10 16 0.00 0.00
9:53 pm 21:53 Clear 27 -2.8 21 -6.1 78 78 N 6 9 29.71 1006 10 16 0.00 0.00
10:53 pm 22:53 Clear 28 -2.2 20 -6.7 72 72 NW 3 6 29.70 1006 10 16 0.00 0.00
11:53 pm 23:53 Clear 26 -3.3 19 -7.2 75 75 NW 7 11 29.67 1005 10 16 0.00 0.00

Powered by AerisWeather